ICABB LIDT-LIPB

Flight info

Callsign ICABB
Flight time 0h 21m
Altitude 3000
Route DTN1 SALORNO PBS1
Aircraft G2CA/L-V/N

Departure

Time 2026-05-06 16:24
Airport Trento-Mattarello Airport (LIDT)

Arrival

Time 2026-05-06 16:46
Airport Bolzano Airport (LIPB)
Time Latitude Longitude Altitude Speed Heading
2026-05-06 16:12 46.02251 11.12633 693 ft 0 kts 124°
2026-05-06 16:22 46.02252 11.12640 685 ft 1 kts 142°
2026-05-06 16:22 46.02244 11.12634 674 ft 2 kts 178°
2026-05-06 16:22 46.02241 11.12622 667 ft 0 kts 261°
2026-05-06 16:23 46.02234 11.12589 674 ft 8 kts 268°
2026-05-06 16:23 46.02218 11.12506 681 ft 10 kts 240°
2026-05-06 16:23 46.02123 11.12493 680 ft 25 kts 182°
2026-05-06 16:23 46.01850 11.12492 721 ft 48 kts 182°
2026-05-06 16:24 46.01475 11.12490 821 ft 52 kts 179°
2026-05-06 16:24 46.01103 11.12489 976 ft 55 kts 178°
2026-05-06 16:24 46.00731 11.12439 1168 ft 54 kts 191°
2026-05-06 16:24 46.00410 11.12559 1377 ft 51 kts 121°
2026-05-06 16:25 46.00496 11.13090 1483 ft 70 kts 38°
2026-05-06 16:25 46.01009 11.13303 1462 ft 87 kts
2026-05-06 16:25 46.01633 11.13273 1455 ft 91 kts 355°
2026-05-06 16:25 46.02264 11.13196 1483 ft 90 kts 356°
2026-05-06 16:26 46.02894 11.13127 1455 ft 92 kts 354°
2026-05-06 16:26 46.03530 11.13043 1476 ft 91 kts 353°
2026-05-06 16:26 46.04144 11.12818 1475 ft 91 kts 338°
2026-05-06 16:26 46.04680 11.12403 1522 ft 86 kts 323°
2026-05-06 16:27 46.05159 11.11867 1564 ft 87 kts 320°
2026-05-06 16:27 46.05715 11.11495 1601 ft 89 kts 348°
2026-05-06 16:27 46.06321 11.11451 1689 ft 87 kts 358°
2026-05-06 16:27 46.06933 11.11429 1752 ft 89 kts 357°
2026-05-06 16:28 46.07550 11.11363 1801 ft 89 kts 353°
2026-05-06 16:28 46.08143 11.11217 1901 ft 86 kts 349°
2026-05-06 16:28 46.08740 11.11058 1967 ft 88 kts 348°
2026-05-06 16:28 46.09344 11.10896 2014 ft 89 kts 348°
2026-05-06 16:29 46.09970 11.10711 2032 ft 95 kts 345°
2026-05-06 16:29 46.10621 11.10519 2099 ft 97 kts 346°
2026-05-06 16:29 46.11280 11.10355 2159 ft 97 kts 348°
2026-05-06 16:29 46.11941 11.10225 2205 ft 99 kts 347°
2026-05-06 16:30 46.12618 11.10095 2254 ft 96 kts 350°
2026-05-06 16:30 46.13049 11.09998 2309 ft 93 kts 345°
2026-05-06 16:30 46.13894 11.09806 2461 ft 91 kts 349°
2026-05-06 16:30 46.14545 11.09712 2496 ft 97 kts 354°
2026-05-06 16:31 46.15213 11.09620 2531 ft 97 kts 349°
2026-05-06 16:31 46.15893 11.09589 2567 ft 100 kts
2026-05-06 16:31 46.16534 11.09891 2687 ft 90 kts 26°
2026-05-06 16:31 46.17074 11.10283 2845 ft 86 kts 29°
2026-05-06 16:32 46.17613 11.10665 2990 ft 87 kts 28°
2026-05-06 16:32 46.18172 11.11040 3078 ft 90 kts 28°
2026-05-06 16:32 46.18735 11.11439 3102 ft 90 kts 33°
2026-05-06 16:32 46.19282 11.11886 3126 ft 90 kts 34°
2026-05-06 16:33 46.19820 11.12326 3175 ft 88 kts 33°
2026-05-06 16:33 46.20360 11.12802 3091 ft 93 kts 40°
2026-05-06 16:33 46.20881 11.13352 3013 ft 92 kts 43°
2026-05-06 16:34 46.21900 11.14318 3002 ft 84 kts 40°
2026-05-06 16:34 46.22367 11.14807 3040 ft 81 kts 47°
2026-05-06 16:34 46.22767 11.15376 3037 ft 80 kts 58°
2026-05-06 16:34 46.23090 11.16018 2996 ft 80 kts 63°
2026-05-06 16:35 46.23387 11.16679 2977 ft 77 kts 69°
2026-05-06 16:35 46.23622 11.17353 2983 ft 74 kts 72°
2026-05-06 16:35 46.23820 11.18044 2957 ft 75 kts 79°
2026-05-06 16:35 46.23919 11.18782 2946 ft 74 kts 91°
2026-05-06 16:36 46.23968 11.19525 2916 ft 75 kts 93°
2026-05-06 16:36 46.23959 11.20296 2855 ft 78 kts 101°
2026-05-06 16:36 46.23986 11.21046 2897 ft 72 kts 75°
2026-05-06 16:36 46.24251 11.21621 3014 ft 71 kts 33°
2026-05-06 16:37 46.24763 11.21807 3016 ft 82 kts 16°
2026-05-06 16:37 46.25327 11.22008 3058 ft 81 kts 22°
2026-05-06 16:37 46.25865 11.22227 3086 ft 83 kts 19°
2026-05-06 16:37 46.26437 11.22473 3096 ft 83 kts 25°
2026-05-06 16:38 46.26994 11.22760 3092 ft 88 kts 24°
2026-05-06 16:38 46.27606 11.22986 3056 ft 92 kts 19°
2026-05-06 16:38 46.28220 11.23200 3068 ft 90 kts 25°
2026-05-06 16:38 46.28800 11.23493 3062 ft 89 kts 27°
2026-05-06 16:39 46.29373 11.23859 3023 ft 90 kts 36°
2026-05-06 16:39 46.29912 11.24295 3022 ft 88 kts 37°
2026-05-06 16:39 46.30431 11.24788 2966 ft 89 kts 44°
2026-05-06 16:39 46.30959 11.25266 2952 ft 92 kts 37°
2026-05-06 16:40 46.31529 11.25704 2899 ft 93 kts 33°
2026-05-06 16:40 46.32110 11.26125 2854 ft 92 kts 36°
2026-05-06 16:40 46.32657 11.26582 2879 ft 88 kts 37°
2026-05-06 16:40 46.33166 11.26956 2967 ft 79 kts 28°
2026-05-06 16:41 46.33705 11.27160 3016 ft 84 kts 14°
2026-05-06 16:41 46.34260 11.27453 3022 ft 90 kts 30°
2026-05-06 16:41 46.34837 11.27906 2998 ft 96 kts 33°
2026-05-06 16:41 46.35445 11.28351 2924 ft 99 kts 27°
2026-05-06 16:42 46.36072 11.28756 2883 ft 100 kts 25°
2026-05-06 16:42 46.36724 11.29125 2815 ft 100 kts 21°
2026-05-06 16:42 46.37385 11.29429 2785 ft 99 kts 17°
2026-05-06 16:42 46.38058 11.29649 2736 ft 99 kts 16°
2026-05-06 16:43 46.38667 11.30086 2674 ft 100 kts 36°
2026-05-06 16:43 46.39254 11.30607 2652 ft 98 kts 31°
2026-05-06 16:43 46.39880 11.31012 2622 ft 99 kts 22°
2026-05-06 16:43 46.40560 11.31259 2513 ft 104 kts 14°
2026-05-06 16:44 46.41277 11.31422 2233 ft 105 kts 12°
2026-05-06 16:44 46.41987 11.31581 1978 ft 101 kts 15°
2026-05-06 16:44 46.42614 11.31754 1722 ft 83 kts 10°
2026-05-06 16:44 46.43175 11.31863 1486 ft 75 kts 14°
2026-05-06 16:45 46.43641 11.32022 1302 ft 63 kts
2026-05-06 16:45 46.44089 11.32137 1197 ft 66 kts 11°
2026-05-06 16:45 46.44531 11.32249 1042 ft 62 kts 14°
2026-05-06 16:45 46.44933 11.32357 928 ft 56 kts 12°
2026-05-06 16:46 46.45292 11.32453 823 ft 50 kts 12°
2026-05-06 16:46 46.45607 11.32533 807 ft 41 kts
2026-05-06 16:46 46.45855 11.32594 809 ft 31 kts 13°
2026-05-06 16:46 46.46038 11.32644 805 ft 23 kts 10°
2026-05-06 16:47 46.46177 11.32680 805 ft 17 kts 11°
2026-05-06 16:47 46.46243 11.32711 799 ft 5 kts 66°
2026-05-06 16:47 46.46243 11.32753 795 ft 4 kts 95°
2026-05-06 16:47 46.46239 11.32789 792 ft 2 kts 99°
2026-05-06 16:48 46.46236 11.32802 794 ft 0 kts 99°
2026-05-06 16:48 46.46239 11.32815 793 ft 3 kts 29°
2026-05-06 16:48 46.46261 11.32826 792 ft 4 kts
2026-05-06 16:48 46.46288 11.32832 792 ft 5 kts 16°
2026-05-06 16:49 46.46327 11.32843 796 ft 5 kts 15°
2026-05-06 16:49 46.46347 11.32861 795 ft 3 kts 83°
2026-05-06 16:49 46.46343 11.32889 797 ft 3 kts 149°
2026-05-06 16:49 46.46327 11.32889 794 ft 2 kts 192°
2026-05-06 16:50 46.46319 11.32886 787 ft 1 kts 190°
2026-05-06 16:50 46.46314 11.32885 786 ft 1 kts 193°
2026-05-06 16:50 46.46312 11.32884 782 ft 0 kts 191°